sat.trackr.live / text

‹ back to catalog

ONEWEB-0305

NORAD 49093 · 2021-075U

PAYLOAD ACTIVE UNKNOWN

§ Identity

Operator
Country
UK
Launch date
2021-08-21
Launch site
TYMSC
Launch vehicle
Mass (kg)
RCS (m²)

Purposes: comms

External: N2YO · Heavens-Above · Gunter

§ Orbital elements

Epoch: 2026-09-20T00:08:26.607264Z

Period
109.29 min
Inclination
87.9205°
Eccentricity
0.0001953
Mean motion
13.17650733 rev/d
Perigee alt
1,192.2 km
Apogee alt
1,195.2 km
Semi-major
7,571.8 km
B*
2.1759e-4
RAAN
347.0331°
Arg perigee
112.6672°
Mean anomaly
247.4666°
Rev number
24,609

§ Raw data

ONEWEB-03051 49093U 21075U   26263.00586351  .00000097  00000+0  21759-3 0  99992 49093  87.9205 347.0331 0001953 112.6672 247.4666 13.17650733246094

JSON: /api/v1/satellites/49093 · /tle

For live sub-satellite position, see the globe view (requires WebGL).

§ Visibility from observer

Set your observer location to see the next 7 days of passes ≥ 10°. The values pass through the URL so the page stays shareable.

No JS? Fill the form by hand. The geolocation button needs JavaScript.